Regional Weather Roundup
Issued by NWS Newport/Morehead, NC

Current Version | Previous Version | Graphics & Text | Print | Product List | Glossary Off
Versions: 1 2 3 4 5 6 7 8 9 10 11 12 13 14 15 16 17 18 19 20 21 22 23 24 25 26 27 28 29 30 31 32 33 34 35 36 37 38 39 40 41 42 43 44 45 46 47 48 49 50

000
ASUS42 KMHX 261124
RWRMHX
WEATHER ROUNDUP FOR EASTERN NORTH CAROLINA
NATIONAL WEATHER SERVICE NEWPORT/MOREHEAD CITY NC
700 AM EDT SUN APR 26 2015

NOTE: "FAIR" INDICATES FEW OR NO CLOUDS BELOW 12,000 FEET
WITH NO SIGNIFICANT WEATHER AND/OR OBSTRUCTIONS TO VISIBILITY

NCZ015>017-031-032-045>047-102-103-261200-
NORTH COAST

CITY           SKY/WX    TMP DP  RH WIND       PRES   REMARKS
EDENTON        CLOUDY    46  45  94 NE7       29.61R
ELIZABETH CITY CLOUDY    48  45  89 N17       29.61S
KITTY HAWK     CLOUDY    47  47 100 NE12G21   29.57F
MANTEO         CLOUDY    48  47  95 NE16      29.58S

$$

NCZ045>047-081-094-103-104-261200-
CENTRAL COAST

CITY           SKY/WX    TMP DP  RH WIND       PRES   REMARKS
FRISCO         CLOUDY    51  51 100 NE10G20   29.57R
SWANQUARTER      N/A     52 N/A N/A N12       29.56S

$$

NCZ095-097-098-100-101-261200-
SOUTHERN COAST

CITY           SKY/WX    TMP DP  RH WIND       PRES   REMARKS
BEAUFORT       LGT RAIN  56  56 100 NE10      29.57R
CEDAR ISLAND     N/A     55 N/A N/A NE15      29.62R
JACKSONVILLE   CLOUDY    56  54  93 NE7       29.57R FOG
PINEY ISLAND   CLOUDY   N/A N/A N/A NE10      29.57R
WILMINGTON     LGT RAIN  62  61  96 N8        29.56R FOG


$$

NCZ011>013-027>030-043-044-078>080-089-090>093-098-261200-
COASTAL PLAIN

CITY           SKY/WX    TMP DP  RH WIND       PRES   REMARKS
AHOSKIE        CLOUDY    46  45  94 N5        29.64R
CLINTON        CLOUDY    50  50 100 N7        29.61R FOG
ELIZABETHTOWN  CLOUDY    58  58 100 CALM      29.57S FOG
GOLDSBORO      CLOUDY    48  48 100 VRB5      29.58R FOG
GREENVILLE     CLOUDY    48  48 100 NE7       29.64S FOG
HAVELOCK       LGT RAIN  55  53  93 NE13      29.59R
KENANSVILLE    CLOUDY    50  49  97 N7        29.61R FOG
KINSTON        CLOUDY    48  48 100 N6        29.60R FOG
NEW BERN       CLOUDY    53  52  96 NE9       29.59S FOG
RICHLANDS      CLOUDY    54  50  87 NE7       29.58S
ROCKY MOUNT    CLOUDY    48  47  96 NE6       29.62R FOG
WASHINGTON     DRIZZLE   48  47  96 NE9       29.60S
WHITEVILLE     CLOUDY    63  61  95 CALM      29.55S FOG

$$

AMZ130-135-150-152-154-156-158-170-250-252-270-ANZ085-086-088-633-658-670-261200-
MARINE OBSERVATIONS

STATION/POSITION TIME  TEMP    WIND        PRES    WAVE   SWELL
                       AIR SEA DIR/SP/G            HT/PER HT/PER
                 (UTC) (F)     (DEG/KT/KT) (MB)    (FT/S) (FT/S)
CHESAPEAKE LIGHT 1100   46      40/ 16/ 17 1003.9
64 E VA BEACH    1050   53 59   40/ 21/ 23 1001.1    6/ 6
DUCK             1100   47 54   30/ 23/ 26 1000.9
2 E DUCK         1011      54                N/A     5/ 6
10 NE DUCK       NOT AVBL
OREGON INLET     1100   49 54   20/ 16/ 24 1000.8
HATTERAS CG      1100   55 65   30/ 11/ 18 1000.6
DIAMOND BUOY     1050   60 68   20/ 16/ 19 1000.3    4/ 8   3/ 8
CAPE LOOKOUT     1100   58      10/  8/ 10 1000.7
BEAUFORT LAB     1100   57 63   30/  7/ 11 1000.3
27 SE WRIGHTSVLE 1100   66 72  270/ 16/ 19   N/A
5 SE WRIGHTSVLE  1008   64 65   60/  6/ 10 1000.3
225 S CAPE HAT   1050   71 70  250/ 16/ 17 1002.5    6/ 6   2/ 8
41 SE CHARLESTON 1050   71 71  250/ 21/ 27 1002.0    5/ 6   2/ 8

$$


USA.gov is the U.S. government's official web portal to all federal, state and local government web resources and services.